Date String (YYYY-MM-DD hh:mm:ss) UTC,Instrument flags,Ambient pressure (hPa),Sample flow (lpm),Bypass flow (lpm),Sample temperature (°C),Ambient temperature (°C),ASC tube jacket temperature (°C),LED temperature (°C),Box temperature (°C),Sample RH (%),Span deviation,Mass concentration (μg/m³),Mass concentration (μg/m³),Mass concentration (μg/m³)
DateTimeUTC,F1_M11,P_M11,Q1_M11,Q2_M11,T1_M11,T2_M11,T3_M11,T4_M11,T5_M11,U1_M11,ZSPAN_M11,X0_M11,X2_M11,X1_M11
2023-05-09 22:00:00,,0827.1,5.00,0.00,29.8,26.2,00.0,38.0,31.1,18.5,0001.4,0027.97,0008.58,0006.50
2023-05-09 22:01:00,,0827.1,5.01,0.00,29.7,26.5,00.0,38.0,31.2,18.6,0000.9,0025.06,0008.42,0006.46
2023-05-09 22:02:00,,0827.1,5.00,0.00,29.7,26.8,00.0,38.0,31.2,18.7,0000.6,0025.31,0008.31,0006.40
2023-05-09 22:03:00,,0827.1,4.99,0.00,29.7,27.1,00.0,38.1,31.3,18.5,0000.7,0025.48,0008.34,0006.39
2023-05-09 22:04:00,,0827.2,5.00,0.00,29.7,27.4,00.0,38.1,31.3,18.6,0000.8,0025.52,0008.34,0006.40
2023-05-09 22:05:00,,0827.1,5.00,0.00,29.7,27.6,00.0,38.1,31.4,18.6,0001.9,0023.69,0008.28,0006.40
2023-05-09 22:06:00,,0827.2,5.01,0.00,29.7,27.8,00.0,38.1,31.4,18.4,0002.1,0023.13,0008.19,0006.40
2023-05-09 22:07:00,,0827.2,5.00,0.00,29.7,28.0,00.0,38.1,31.4,18.4,0002.3,0023.85,0008.16,0006.37
2023-05-09 22:08:00,,0827.2,4.99,0.00,29.8,28.1,00.0,38.1,31.5,18.0,0002.4,0025.08,0008.17,0006.37
2023-05-09 22:09:00,,0827.1,4.99,0.00,29.8,28.3,00.0,38.1,31.5,17.8,0003.3,0025.22,0008.16,0006.36
2023-05-09 22:10:00,,0827.1,5.01,0.00,29.8,28.4,00.0,38.1,31.6,18.1,0003.6,0025.84,0008.12,0006.35
2023-05-09 22:11:00,,0827.1,5.01,0.00,29.8,28.4,00.0,38.1,31.6,18.1,0004.5,0025.99,0008.11,0006.33
2023-05-09 22:12:00,,0827.1,4.99,0.00,29.9,28.5,00.0,38.2,31.6,17.9,0004.6,0026.46,0008.12,0006.33
2023-05-09 22:13:00,,0827.0,4.99,0.00,29.9,27.4,00.0,38.1,31.4,17.7,0004.7,0026.40,0008.13,0006.32
2023-05-09 22:14:00,,0827.1,5.00,0.00,29.8,25.5,00.0,38.0,31.1,17.4,0004.6,0025.59,0008.05,0006.27
2023-05-09 22:15:00,,0827.1,5.01,0.00,29.7,25.1,00.0,38.0,31.0,17.6,0004.9,0025.13,0007.90,0006.18
2023-05-09 22:16:00,,0827.1,5.01,0.00,29.6,25.3,00.0,37.9,30.9,17.9,0004.5,0025.46,0007.87,0006.11
2023-05-09 22:17:00,,0827.1,4.99,0.00,29.5,25.7,00.0,37.9,30.9,17.9,0004.5,0025.57,0007.85,0006.05
2023-05-09 22:18:00,,0827.1,4.99,0.00,29.5,26.1,00.0,37.9,31.0,18.0,0004.8,0025.43,0007.79,0005.99
2023-05-09 22:19:00,,0827.1,5.00,0.00,29.5,26.5,00.0,37.9,31.0,18.3,0004.3,0024.27,0007.71,0005.92
2023-05-09 22:20:00,,0827.1,5.01,0.00,29.5,26.8,00.0,37.9,31.1,18.3,0003.8,0024.32,0007.67,0005.87
2023-05-09 22:21:00,,0827.1,5.01,0.00,29.5,27.1,00.0,37.9,31.1,18.6,0004.0,0024.44,0007.62,0005.83
2023-05-09 22:22:00,,0827.1,5.00,0.00,29.5,27.4,00.0,37.9,31.2,18.8,0002.7,0023.98,0007.56,0005.81
2023-05-09 22:23:00,,0827.2,5.00,0.00,29.5,27.6,00.0,37.9,31.2,18.8,0002.0,0024.09,0007.54,0005.80
2023-05-09 22:24:00,,0827.1,4.99,0.00,29.5,27.8,00.0,37.9,31.2,18.6,0001.8,0023.26,0007.55,0005.82
2023-05-09 22:25:00,,0827.1,5.00,0.00,29.6,27.9,00.0,37.9,31.3,18.6,0002.1,0022.81,0007.56,0005.85
2023-05-09 22:26:00,,0827.2,5.00,0.00,29.6,28.0,00.0,37.9,31.3,18.3,0002.2,0023.58,0007.67,0005.92
2023-05-09 22:27:00,,0827.1,5.00,0.00,29.6,28.1,00.0,37.9,31.4,18.5,0002.7,0023.94,0007.72,0005.95
2023-05-09 22:28:00,,0827.1,5.00,0.00,29.6,28.2,00.0,37.9,31.4,18.5,0002.7,0023.70,0007.75,0005.96
2023-05-09 22:29:00,,0827.1,5.00,0.00,29.7,28.3,00.0,38.0,31.4,18.5,0002.7,0023.48,0007.78,0005.99
2023-05-09 22:30:00,,0827.1,5.00,0.00,29.7,28.4,00.0,38.0,31.5,18.3,0003.2,0024.19,0007.80,0005.99
2023-05-09 22:31:00,,0827.1,4.98,0.00,29.7,28.4,00.0,38.0,31.5,18.1,0003.2,0024.81,0007.84,0005.97
2023-05-09 22:32:00,,0827.2,5.00,0.00,29.8,28.5,00.0,38.0,31.5,17.8,0003.1,0025.48,0007.84,0005.97
2023-05-09 22:33:00,,0827.2,5.01,0.00,29.8,28.5,00.0,38.0,31.6,17.9,0003.8,0026.64,0007.79,0005.94
2023-05-09 22:34:00,,0827.1,5.00,0.00,29.8,28.5,00.0,38.1,31.6,17.9,0003.9,0026.81,0007.81,0005.92
2023-05-09 22:35:00,,0827.1,4.99,0.00,29.8,27.1,00.0,38.0,31.4,17.6,0003.9,0027.15,0007.81,0005.90
2023-05-09 22:36:00,,0827.1,5.02,0.00,29.7,25.3,00.0,38.0,31.0,17.8,0003.6,0028.85,0007.81,0005.87
2023-05-09 22:37:00,,0827.1,5.01,0.00,29.6,25.1,00.0,37.9,30.9,18.1,0003.2,0029.20,0007.77,0005.84
2023-05-09 22:38:00,,0827.0,5.00,0.00,29.5,25.3,00.0,37.8,30.8,17.7,0002.7,0028.70,0007.81,0005.86
2023-05-09 22:39:00,,0827.0,5.00,0.00,29.5,25.7,00.0,37.8,30.9,17.8,0002.2,0029.43,0007.82,0005.88
2023-05-09 22:40:00,,0827.0,5.00,0.00,29.4,26.1,00.0,37.8,30.9,17.9,0001.2,0029.55,0007.82,0005.87
2023-05-09 22:41:00,,0827.0,4.99,0.00,29.4,26.5,00.0,37.8,31.0,17.9,0000.7,0028.21,0007.83,0005.87
2023-05-09 22:42:00,,0827.0,4.99,0.00,29.4,26.8,00.0,37.8,31.0,17.9,0000.8,0027.21,0007.75,0005.87
2023-05-09 22:43:00,,0827.0,5.00,0.00,29.4,27.1,00.0,37.8,31.1,17.8,0001.2,0025.58,0007.73,0005.85
2023-05-09 22:44:00,,0827.1,5.00,0.00,29.5,27.4,00.0,37.8,31.1,18.0,0000.8,0024.96,0007.76,0005.84
2023-05-09 22:45:00,,0827.1,5.01,0.00,29.5,27.6,00.0,37.8,31.2,18.0,0001.0,0024.91,0007.73,0005.82
2023-05-09 22:46:00,,0827.1,5.00,0.00,29.5,27.7,00.0,37.8,31.2,18.1,0001.7,0025.13,0007.74,0005.79
2023-05-09 22:47:00,,0827.1,4.98,0.00,29.5,27.9,00.0,37.8,31.2,18.1,0002.3,0024.47,0007.70,0005.74
2023-05-09 22:48:00,,0827.1,5.01,0.00,29.6,28.0,00.0,37.9,31.3,17.8,0003.2,0024.31,0007.70,0005.71
2023-05-09 22:49:00,,0827.1,5.01,0.00,29.6,28.1,00.0,37.9,31.3,17.8,0003.5,0024.29,0007.61,0005.64
2023-05-09 22:50:00,,0827.1,5.01,0.00,29.6,28.2,00.0,37.9,31.4,17.7,0003.7,0024.14,0007.63,0005.59
2023-05-09 22:51:00,,0827.1,4.99,0.00,29.6,28.3,00.0,37.9,31.4,17.6,0003.2,0024.06,0007.66,0005.58
2023-05-09 22:52:00,,0827.1,5.00,0.00,29.7,28.4,00.0,37.9,31.4,17.5,0003.3,0023.96,0007.61,0005.57
2023-05-09 22:53:00,,0827.0,5.01,0.00,29.7,28.4,00.0,38.0,31.5,17.5,0003.6,0024.33,0007.58,0005.55
2023-05-09 22:54:00,,0827.0,5.01,0.00,29.7,28.5,00.0,38.0,31.5,17.6,0004.3,0024.83,0007.55,0005.52
2023-05-09 22:55:00,,0827.1,5.00,0.00,29.8,28.5,00.0,38.0,31.5,17.4,0004.5,0024.30,0007.51,0005.51
2023-05-09 22:56:00,,0827.0,4.98,0.00,29.8,28.6,00.0,38.0,31.6,17.4,0004.3,0023.44,0007.51,0005.52
2023-05-09 22:57:00,,0827.1,5.01,0.00,29.8,27.9,00.0,38.0,31.5,17.7,0004.1,0023.72,0007.45,0005.50
2023-05-09 22:58:00,,0827.1,5.00,0.00,29.8,26.2,00.0,38.0,31.2,17.9,0003.5,0023.82,0007.43,0005.50
2023-05-09 22:59:00,,0827.1,5.02,0.00,29.7,26.0,00.0,37.9,31.1,17.9,0003.2,0024.30,0007.40,0005.48
